Tracking 30685 objects as of 18-Jun-2025
HD Live streaming from Space Station
objects crossing your sky now

TITAN 3C TRANSTAGE R/B

Track TITAN 3C TRANSTAGE R/B now!


NORAD ID: 2868
Int'l Code: 1967-066G
Perigee: 33,203.2 km
Apogee: 33,865.5 km
Inclination: 1.5 °
Period: 1,322.2 minutes
Semi major axis: 39905 km
RCS: 1.6554 m2 (large)
Launch date: July 1, 1967
Source: United States (US)
Launch site: AIR FORCE EASTERN TEST RANGE (AFETR)

Note: This is a ROCKET BODY
Your satellite tracking list
Your tracking list is empty




NASA's NSSDC Master Catalog

Two Line Element Set (TLE):
1 02868U 67066G   25168.82431132 -.00000035  00000-0  00000-0 0  9994
2 02868   1.5321 113.1037 0082988 153.8244 108.7168  1.08907199124367
Source of the keplerian elements: AFSPC